OAS8448 SKBO-SKCL

Flight info

Callsign OAS8448
Flight time 0h 33m
Altitude 22000
Route VAPOM4R OREGA OREGA5A
Aircraft B38M/M-SDE1FGHILORVWXY/HB1

Departure

Time 2026-04-23 01:48
Airport El Dorado International Airport (SKBO)

Arrival

Time 2026-04-23 02:22
Airport Alfonso Bonilla Aragon International Airport (SKCL)
Time Latitude Longitude Altitude Speed Heading
2026-04-23 01:06 4.69902 -74.14495 8368 ft 0 kts 209°
2026-04-23 01:06 4.69904 -74.14494 8368 ft 0 kts 208°
2026-04-23 01:28 4.69905 -74.14493 8368 ft 2 kts 208°
2026-04-23 01:29 4.69928 -74.14480 8369 ft 4 kts 216°
2026-04-23 01:29 4.69946 -74.14465 8369 ft 4 kts 236°
2026-04-23 01:29 4.69949 -74.14445 8369 ft 4 kts 302°
2026-04-23 01:29 4.69931 -74.14426 8369 ft 4 kts 311°
2026-04-23 01:30 4.69916 -74.14406 8369 ft 4 kts 307°
2026-04-23 01:30 4.69899 -74.14384 8369 ft 4 kts 307°
2026-04-23 01:30 4.69893 -74.14376 8369 ft 0 kts 307°
2026-04-23 01:33 4.69898 -74.14383 8369 ft 4 kts 307°
2026-04-23 01:33 4.69928 -74.14422 8369 ft 9 kts 308°
2026-04-23 01:34 4.69966 -74.14472 8369 ft 9 kts 307°
2026-04-23 01:34 4.70002 -74.14520 8369 ft 9 kts 307°
2026-04-23 01:34 4.70037 -74.14569 8368 ft 6 kts 295°
2026-04-23 01:34 4.70037 -74.14602 8368 ft 5 kts 263°
2026-04-23 01:35 4.70040 -74.14633 8368 ft 4 kts 289°
2026-04-23 01:35 4.70051 -74.14649 8369 ft 0 kts 315°
2026-04-23 01:35 4.70052 -74.14651 8369 ft 0 kts 315°
2026-04-23 01:36 4.70057 -74.14655 8368 ft 3 kts 322°
2026-04-23 01:36 4.70078 -74.14660 8368 ft 3 kts
2026-04-23 01:36 4.70091 -74.14653 8368 ft 3 kts 30°
2026-04-23 01:36 4.70122 -74.14640 8368 ft 5 kts
2026-04-23 01:37 4.70142 -74.14650 8368 ft 4 kts 321°
2026-04-23 01:37 4.70158 -74.14688 8368 ft 8 kts 264°
2026-04-23 01:37 4.70120 -74.14733 8368 ft 9 kts 216°
2026-04-23 01:37 4.70071 -74.14770 8368 ft 9 kts 216°
2026-04-23 01:38 4.70024 -74.14807 8368 ft 9 kts 218°
2026-04-23 01:38 4.69978 -74.14841 8368 ft 8 kts 215°
2026-04-23 01:38 4.69933 -74.14874 8368 ft 8 kts 218°
2026-04-23 01:38 4.69885 -74.14912 8368 ft 10 kts 217°
2026-04-23 01:39 4.69852 -74.14953 8368 ft 7 kts 272°
2026-04-23 01:39 4.69880 -74.15009 8369 ft 10 kts 305°
2026-04-23 01:39 4.69932 -74.15079 8368 ft 15 kts 307°
2026-04-23 01:39 4.69996 -74.15165 8369 ft 16 kts 307°
2026-04-23 01:40 4.70063 -74.15249 8368 ft 15 kts 308°
2026-04-23 01:40 4.70125 -74.15334 8368 ft 15 kts 308°
2026-04-23 01:40 4.70188 -74.15415 8368 ft 15 kts 308°
2026-04-23 01:40 4.70250 -74.15497 8368 ft 15 kts 307°
2026-04-23 01:41 4.70312 -74.15577 8368 ft 14 kts 307°
2026-04-23 01:41 4.70370 -74.15657 8368 ft 14 kts 307°
2026-04-23 01:41 4.70429 -74.15735 8368 ft 14 kts 307°
2026-04-23 01:41 4.70489 -74.15811 8368 ft 14 kts 308°
2026-04-23 01:42 4.70545 -74.15888 8368 ft 14 kts 307°
2026-04-23 01:42 4.70602 -74.15963 8368 ft 14 kts 308°
2026-04-23 01:42 4.70660 -74.16040 8368 ft 15 kts 307°
2026-04-23 01:42 4.70732 -74.16135 8368 ft 19 kts 307°
2026-04-23 01:43 4.70816 -74.16247 8368 ft 20 kts 307°
2026-04-23 01:43 4.70899 -74.16355 8368 ft 20 kts 308°
2026-04-23 01:43 4.70984 -74.16464 8368 ft 19 kts 307°
2026-04-23 01:43 4.71063 -74.16571 8368 ft 19 kts 307°
2026-04-23 01:44 4.71140 -74.16673 8368 ft 18 kts 307°
2026-04-23 01:44 4.71199 -74.16755 8368 ft 9 kts 289°
2026-04-23 01:44 4.71191 -74.16803 8368 ft 4 kts 223°
2026-04-23 01:44 4.71166 -74.16822 8368 ft 5 kts 218°
2026-04-23 01:45 4.71135 -74.16846 8367 ft 7 kts 216°
2026-04-23 01:45 4.71093 -74.16878 8365 ft 9 kts 218°
2026-04-23 01:45 4.71080 -74.16888 8365 ft 1 kts 216°
2026-04-23 01:45 4.71073 -74.16893 8365 ft 1 kts 217°
2026-04-23 01:46 4.71065 -74.16900 8365 ft 2 kts 219°
2026-04-23 01:46 4.71055 -74.16907 8365 ft 2 kts 206°
2026-04-23 01:46 4.71044 -74.16903 8366 ft 3 kts 150°
2026-04-23 01:46 4.71032 -74.16891 8365 ft 0 kts 128°
2026-04-23 01:47 4.71025 -74.16882 8366 ft 7 kts 128°
2026-04-23 01:47 4.70951 -74.16789 8366 ft 36 kts 128°
2026-04-23 01:47 4.70653 -74.16397 8367 ft 103 kts 127°
2026-04-23 01:48 4.70098 -74.15660 8367 ft 160 kts 127°
2026-04-23 01:48 4.69352 -74.14640 8511 ft 194 kts 130°
2026-04-23 01:48 4.68538 -74.13515 9060 ft 205 kts 123°
2026-04-23 01:48 4.67608 -74.12416 9749 ft 213 kts 140°
2026-04-23 01:49 4.66231 -74.11837 10308 ft 229 kts 171°
2026-04-23 01:49 4.64588 -74.12050 10682 ft 252 kts 201°
2026-04-23 01:49 4.63170 -74.13169 11105 ft 268 kts 238°
2026-04-23 01:49 4.62557 -74.14906 11974 ft 266 kts 263°
2026-04-23 01:50 4.62310 -74.16722 12942 ft 261 kts 259°
2026-04-23 01:50 4.61928 -74.18477 13973 ft 254 kts 256°
2026-04-23 01:50 4.61470 -74.20184 14753 ft 255 kts 254°
2026-04-23 01:50 4.61109 -74.21956 15261 ft 266 kts 263°
2026-04-23 01:51 4.60844 -74.23844 15669 ft 281 kts 261°
2026-04-23 01:51 4.60517 -74.25834 16041 ft 298 kts 260°
2026-04-23 01:51 4.59933 -74.27882 16353 ft 316 kts 245°
2026-04-23 01:51 4.58934 -74.29905 16651 ft 333 kts 244°
2026-04-23 01:52 4.57872 -74.32025 17082 ft 346 kts 243°
2026-04-23 01:52 4.56763 -74.34215 17470 ft 358 kts 243°
2026-04-23 01:52 4.55630 -74.36440 18164 ft 359 kts 243°
2026-04-23 01:52 4.54484 -74.38682 18730 ft 363 kts 243°
2026-04-23 01:53 4.53326 -74.40948 19247 ft 367 kts 243°
2026-04-23 01:53 4.52157 -74.43230 19764 ft 370 kts 243°
2026-04-23 01:53 4.50979 -74.45532 20171 ft 374 kts 243°
2026-04-23 01:53 4.49793 -74.47849 20211 ft 373 kts 243°
2026-04-23 01:54 4.48605 -74.50169 20596 ft 374 kts 243°
2026-04-23 01:54 4.47417 -74.52489 21132 ft 376 kts 243°
2026-04-23 01:54 4.46214 -74.54840 21588 ft 380 kts 243°
2026-04-23 01:54 4.44999 -74.57212 22069 ft 384 kts 243°
2026-04-23 01:55 4.43788 -74.59576 22159 ft 388 kts 243°
2026-04-23 01:55 4.42542 -74.62011 22164 ft 388 kts 243°
2026-04-23 01:55 4.41310 -74.64415 22157 ft 388 kts 243°
2026-04-23 01:55 4.40078 -74.66819 22152 ft 387 kts 243°
2026-04-23 01:56 4.38844 -74.69218 22151 ft 387 kts 243°
2026-04-23 01:56 4.37607 -74.71620 22148 ft 387 kts 243°
2026-04-23 01:56 4.36373 -74.74016 22135 ft 387 kts 243°
2026-04-23 01:56 4.35140 -74.76409 22136 ft 387 kts 243°
2026-04-23 01:57 4.33917 -74.78784 22123 ft 387 kts 243°
2026-04-23 01:57 4.32666 -74.81212 22110 ft 387 kts 243°
2026-04-23 01:57 4.31446 -74.83580 22102 ft 387 kts 243°
2026-04-23 01:57 4.30196 -74.86007 22092 ft 387 kts 243°
2026-04-23 01:58 4.28962 -74.88403 22073 ft 387 kts 243°
2026-04-23 01:58 4.27725 -74.90803 22065 ft 387 kts 243°
2026-04-23 01:58 4.26494 -74.93193 22066 ft 387 kts 243°
2026-04-23 01:58 4.25275 -74.95558 22071 ft 387 kts 243°
2026-04-23 01:59 4.24042 -74.97951 22063 ft 387 kts 243°
2026-04-23 01:59 4.22794 -75.00373 22053 ft 386 kts 243°
2026-04-23 01:59 4.21577 -75.02735 22055 ft 386 kts 243°
2026-04-23 01:59 4.20261 -75.05077 22056 ft 386 kts 234°
2026-04-23 02:00 4.18639 -75.07223 22054 ft 386 kts 233°
2026-04-23 02:00 4.17027 -75.09379 22069 ft 387 kts 233°
2026-04-23 02:00 4.15422 -75.11525 22068 ft 387 kts 233°
2026-04-23 02:00 4.13802 -75.13689 22081 ft 387 kts 233°
2026-04-23 02:01 4.12189 -75.15845 22090 ft 387 kts 233°
2026-04-23 02:01 4.10577 -75.17999 22108 ft 386 kts 233°
2026-04-23 02:01 4.08964 -75.20154 22111 ft 386 kts 233°
2026-04-23 02:01 4.07354 -75.22304 22118 ft 386 kts 233°
2026-04-23 02:02 4.05743 -75.24457 22126 ft 386 kts 233°
2026-04-23 02:02 4.04129 -75.26612 22127 ft 386 kts 233°
2026-04-23 02:02 4.02517 -75.28766 22135 ft 386 kts 233°
2026-04-23 02:02 4.00906 -75.30917 22139 ft 386 kts 233°
2026-04-23 02:03 3.99296 -75.33067 22131 ft 386 kts 233°
2026-04-23 02:03 3.97687 -75.35215 22132 ft 386 kts 233°
2026-04-23 02:03 3.96075 -75.37367 22141 ft 386 kts 233°
2026-04-23 02:03 3.94464 -75.39518 22148 ft 386 kts 233°
2026-04-23 02:04 3.92853 -75.41668 22154 ft 386 kts 233°
2026-04-23 02:04 3.91245 -75.43815 22151 ft 386 kts 233°
2026-04-23 02:04 3.89635 -75.45964 22161 ft 385 kts 233°
2026-04-23 02:04 3.88027 -75.48110 22158 ft 385 kts 233°
2026-04-23 02:05 3.86542 -75.50335 22150 ft 384 kts 244°
2026-04-23 02:05 3.85795 -75.51941 22161 ft 385 kts 245°
2026-04-23 02:05 3.84650 -75.54363 22158 ft 385 kts 245°
2026-04-23 02:05 3.83505 -75.56782 22167 ft 385 kts 245°
2026-04-23 02:06 3.82358 -75.59209 22163 ft 385 kts 245°
2026-04-23 02:06 3.81214 -75.61631 22170 ft 385 kts 245°
2026-04-23 02:06 3.80071 -75.64052 22177 ft 385 kts 245°
2026-04-23 02:06 3.78575 -75.67219 22229 ft 370 kts 245°
2026-04-23 02:07 3.77844 -75.68767 22243 ft 359 kts 245°
2026-04-23 02:07 3.76795 -75.70990 22131 ft 347 kts 245°
2026-04-23 02:07 3.75779 -75.73141 21952 ft 339 kts 245°
2026-04-23 02:07 3.74771 -75.75275 21594 ft 341 kts 245°
2026-04-23 02:08 3.73750 -75.77436 21206 ft 344 kts 245°
2026-04-23 02:08 3.72727 -75.79601 20817 ft 344 kts 245°
2026-04-23 02:08 3.71705 -75.81766 20433 ft 344 kts 245°
2026-04-23 02:08 3.70683 -75.83928 20036 ft 344 kts 245°
2026-04-23 02:09 3.69663 -75.86087 19640 ft 343 kts 244°
2026-04-23 02:09 3.68646 -75.88239 19245 ft 341 kts 244°
2026-04-23 02:09 3.67636 -75.90377 18843 ft 339 kts 244°
2026-04-23 02:09 3.66642 -75.92481 18439 ft 338 kts 244°
2026-04-23 02:10 3.65736 -75.94398 18012 ft 338 kts 244°
2026-04-23 02:10 3.64735 -75.96516 17576 ft 335 kts 244°
2026-04-23 02:10 3.63744 -75.98614 17164 ft 332 kts 245°
2026-04-23 02:10 3.62759 -76.00698 16766 ft 330 kts 244°
2026-04-23 02:11 3.61782 -76.02762 16376 ft 327 kts 245°
2026-04-23 02:11 3.60813 -76.04813 15983 ft 325 kts 245°
2026-04-23 02:11 3.59843 -76.06866 15451 ft 327 kts 245°
2026-04-23 02:11 3.58871 -76.08923 14997 ft 327 kts 245°
2026-04-23 02:12 3.57909 -76.10960 14536 ft 320 kts 245°
2026-04-23 02:12 3.56970 -76.12947 14082 ft 313 kts 245°
2026-04-23 02:12 3.56036 -76.14924 13571 ft 316 kts 245°
2026-04-23 02:12 3.55096 -76.16916 13045 ft 318 kts 245°
2026-04-23 02:13 3.54150 -76.18917 12569 ft 317 kts 245°
2026-04-23 02:13 3.53209 -76.20908 12171 ft 315 kts 245°
2026-04-23 02:13 3.52292 -76.22849 11786 ft 302 kts 245°
2026-04-23 02:13 3.51411 -76.24715 11426 ft 291 kts 245°
2026-04-23 02:14 3.50558 -76.26514 11069 ft 281 kts 243°
2026-04-23 02:14 3.49423 -76.28048 10663 ft 273 kts 218°
2026-04-23 02:14 3.47773 -76.28883 10312 ft 264 kts 195°
2026-04-23 02:14 3.46025 -76.29310 10024 ft 254 kts 193°
2026-04-23 02:15 3.42607 -76.30115 9347 ft 251 kts 193°
2026-04-23 02:15 3.40932 -76.30496 8999 ft 243 kts 193°
2026-04-23 02:15 3.39312 -76.30861 8752 ft 235 kts 192°
2026-04-23 02:16 3.37728 -76.31215 8461 ft 233 kts 192°
2026-04-23 02:16 3.36147 -76.31566 8140 ft 232 kts 192°
2026-04-23 02:16 3.34607 -76.32035 7799 ft 232 kts 210°
2026-04-23 02:16 3.33501 -76.33178 7435 ft 231 kts 244°
2026-04-23 02:17 3.33211 -76.34708 7117 ft 223 kts 277°
2026-04-23 02:17 3.33701 -76.36131 6847 ft 214 kts 300°
2026-04-23 02:17 3.34426 -76.37438 6613 ft 216 kts 299°
2026-04-23 02:17 3.35156 -76.38749 6348 ft 215 kts 299°
2026-04-23 02:18 3.35951 -76.40006 6065 ft 212 kts 316°
2026-04-23 02:18 3.37181 -76.40688 5976 ft 196 kts 347°
2026-04-23 02:18 3.38528 -76.40848 5899 ft 199 kts
2026-04-23 02:18 3.39909 -76.40727 5643 ft 200 kts 10°
2026-04-23 02:19 3.41281 -76.40466 5385 ft 200 kts 11°
2026-04-23 02:19 3.42635 -76.40216 5133 ft 194 kts 10°
2026-04-23 02:19 3.43903 -76.39994 4903 ft 175 kts 10°
2026-04-23 02:19 3.45038 -76.39794 4706 ft 159 kts 10°
2026-04-23 02:20 3.46126 -76.39604 4493 ft 159 kts 10°
2026-04-23 02:20 3.47197 -76.39416 4293 ft 158 kts 10°
2026-04-23 02:20 3.48291 -76.39224 4088 ft 157 kts 10°
2026-04-23 02:20 3.49364 -76.39037 3886 ft 156 kts 10°
2026-04-23 02:21 3.50425 -76.38853 3690 ft 154 kts
2026-04-23 02:21 3.51474 -76.38654 3455 ft 152 kts
2026-04-23 02:21 3.52513 -76.38490 3281 ft 151 kts 10°
2026-04-23 02:21 3.53515 -76.38323 3166 ft 139 kts 12°
2026-04-23 02:22 3.54234 -76.38188 3168 ft 68 kts 10°
2026-04-23 02:22 3.54537 -76.38132 3169 ft 18 kts
2026-04-23 02:22 3.54600 -76.38180 3168 ft 8 kts 288°
2026-04-23 02:22 3.54604 -76.38202 3170 ft 3 kts 281°
2026-04-23 02:23 3.54609 -76.38227 3168 ft 5 kts 281°
2026-04-23 02:23 3.54615 -76.38263 3168 ft 5 kts 266°
2026-04-23 02:23 3.54604 -76.38275 3168 ft 4 kts 216°
2026-04-23 02:23 3.54566 -76.38288 3169 ft 8 kts 192°
2026-04-23 02:24 3.54493 -76.38301 3168 ft 13 kts 189°
2026-04-23 02:24 3.54400 -76.38317 3168 ft 15 kts 189°
2026-04-23 02:24 3.54294 -76.38336 3167 ft 16 kts 190°
2026-04-23 02:24 3.54183 -76.38355 3167 ft 17 kts 191°
2026-04-23 02:25 3.54081 -76.38382 3166 ft 13 kts 212°
2026-04-23 02:25 3.54009 -76.38443 3166 ft 12 kts 220°
2026-04-23 02:25 3.53998 -76.38453 3166 ft 13 kts 219°
2026-04-23 02:26 3.53989 -76.38460 3166 ft 13 kts 219°
2026-04-23 02:26 3.53917 -76.38521 3165 ft 14 kts 220°
2026-04-23 02:26 3.53847 -76.38578 3165 ft 10 kts 207°
2026-04-23 02:26 3.53780 -76.38575 3167 ft 10 kts 150°
2026-04-23 02:27 3.53741 -76.38550 3165 ft 0 kts 169°
2026-04-23 02:27 3.53740 -76.38551 3165 ft 0 kts 185°
2026-04-23 02:27 3.53724 -76.38562 3167 ft 2 kts 240°
2026-04-23 02:27 3.53716 -76.38581 3165 ft 4 kts 249°
2026-04-23 02:28 3.53712 -76.38591 3165 ft 2 kts 250°
2026-04-23 02:28 3.53711 -76.38595 3165 ft 1 kts 250°
2026-04-23 02:28 3.53710 -76.38598 3165 ft 0 kts 250°